Time,TemperatureF,DewpointF,PressureIn,WindDirection,WindDirectionDegrees,WindSpeedMPH,WindSpeedGustMPH,Humidity,HourlyPrecipIn,Conditions,Clouds,dailyrainin,SoftwareType,DateUTC
2013-01-02 00:03:00,-999.0,-99.9,29.90,NW,316,13.0,18.0,-999,-99.99,,,-99.99,,2013-01-02 05:03:00,
2013-01-02 00:12:00,28.0,-99.9,29.90,NW,312,10.0,20.0,-999,-99.99,,,-99.99,,2013-01-02 05:12:00,
2013-01-02 00:22:00,-999.0,-99.9,29.91,NW,323,12.0,18.0,-999,-99.99,,,-99.99,,2013-01-02 05:22:00,
2013-01-02 00:33:00,-999.0,-99.9,29.90,WNW,303,11.0,17.0,-999,-99.99,,,-99.99,,2013-01-02 05:33:00,
2013-01-02 00:43:00,28.0,-99.9,29.91,NW,317,9.0,17.0,-999,-99.99,,,-99.99,,2013-01-02 05:43:00,
2013-01-02 00:53:00,-999.0,-99.9,29.90,NNW,329,15.0,19.0,-999,-99.99,,,-99.99,,2013-01-02 05:53:00,
2013-01-02 01:02:00,-999.0,-99.9,29.90,NW,323,12.0,21.0,-999,-99.99,,,-99.99,,2013-01-02 06:02:00,
2013-01-02 01:12:00,-999.0,-99.9,29.90,NW,324,10.0,20.0,-999,-99.99,,,-99.99,,2013-01-02 06:12:00,
2013-01-02 01:22:00,-999.0,-99.9,29.91,NW,312,11.0,21.0,-999,-99.99,,,-99.99,,2013-01-02 06:22:00,
2013-01-02 01:33:00,-999.0,-99.9,29.91,NW,318,10.0,21.0,-999,-99.99,,,-99.99,,2013-01-02 06:33:00,
2013-01-02 01:43:00,27.0,-99.9,29.92,NW,308,11.0,16.0,-999,-99.99,,,-99.99,,2013-01-02 06:43:00,
2013-01-02 01:53:00,-999.0,-99.9,29.91,NW,314,11.0,16.0,-999,-99.99,,,-99.99,,2013-01-02 06:53:00,
2013-01-02 02:02:00,-999.0,-99.9,29.92,NW,326,11.0,17.0,-999,-99.99,,,-99.99,,2013-01-02 07:02:00,
2013-01-02 02:12:00,26.0,-99.9,29.92,NW,318,10.0,20.0,-999,-99.99,,,-99.99,,2013-01-02 07:12:00,
2013-01-02 02:22:00,-999.0,-99.9,29.91,NW,324,8.0,18.0,-999,-99.99,,,-99.99,,2013-01-02 07:22:00,
2013-01-02 02:32:00,-999.0,-99.9,29.93,NW,310,11.0,19.0,-999,-99.99,,,-99.99,,2013-01-02 07:32:00,
2013-01-02 02:42:00,26.0,-99.9,29.93,NW,314,11.0,17.0,-999,-99.99,,,-99.99,,2013-01-02 07:42:00,
2013-01-02 02:52:00,-999.0,-99.9,29.94,NW,305,11.0,16.0,-999,-99.99,,,-99.99,,2013-01-02 07:52:00,
2013-01-02 03:02:00,-999.0,-99.9,29.94,NW,315,11.0,16.0,-999,-99.99,,,-99.99,,2013-01-02 08:02:00,
2013-01-02 03:12:00,25.0,-99.9,29.94,NW,322,10.0,17.0,-999,-99.99,,,-99.99,,2013-01-02 08:12:00,
2013-01-02 03:22:00,-999.0,-99.9,29.93,NW,326,8.0,14.0,-999,-99.99,,,-99.99,,2013-01-02 08:22:00,
2013-01-02 03:32:00,-999.0,-99.9,29.93,NW,315,10.0,17.0,-999,-99.99,,,-99.99,,2013-01-02 08:32:00,
2013-01-02 03:42:00,25.0,-99.9,29.93,NW,325,9.0,17.0,-999,-99.99,,,-99.99,,2013-01-02 08:42:00,
2013-01-02 03:53:00,-999.0,-99.9,29.93,NNW,335,12.0,17.0,-999,-99.99,,,-99.99,,2013-01-02 08:53:00,
2013-01-02 04:02:00,-999.0,-99.9,29.93,NW,320,8.0,14.0,-999,-99.99,,,-99.99,,2013-01-02 09:02:00,
2013-01-02 04:12:00,24.0,-99.9,29.93,NNW,337,12.0,18.0,-999,-99.99,,,-99.99,,2013-01-02 09:12:00,
2013-01-02 04:22:00,-999.0,-99.9,29.92,NNW,327,12.0,19.0,-999,-99.99,,,-99.99,,2013-01-02 09:22:00,
2013-01-02 04:32:00,-999.0,-99.9,29.93,NW,323,11.0,18.0,-999,-99.99,,,-99.99,,2013-01-02 09:32:00,
2013-01-02 04:43:00,24.0,-99.9,29.93,NNW,329,13.0,16.0,-999,-99.99,,,-99.99,,2013-01-02 09:43:00,
2013-01-02 04:53:00,-999.0,-99.9,29.93,NNW,332,11.0,15.0,-999,-99.99,,,-99.99,,2013-01-02 09:53:00,
2013-01-02 05:02:00,-999.0,-99.9,29.93,NW,324,8.0,17.0,-999,-99.99,,,-99.99,,2013-01-02 10:02:00,
2013-01-02 05:12:00,24.0,-99.9,29.93,NW,318,11.0,16.0,-999,-99.99,,,-99.99,,2013-01-02 10:12:00,
2013-01-02 05:22:00,-999.0,-99.9,29.93,NW,320,11.0,18.0,-999,-99.99,,,-99.99,,2013-01-02 10:22:00,
2013-01-02 05:32:00,-999.0,-99.9,29.94,NNW,332,11.0,17.0,-999,-99.99,,,-99.99,,2013-01-02 10:32:00,
2013-01-02 05:43:00,-999.0,-99.9,29.93,NNW,331,11.0,18.0,-999,-99.99,,,-99.99,,2013-01-02 10:43:00,
2013-01-02 05:53:00,-999.0,-99.9,29.93,NW,326,13.0,18.0,-999,-99.99,,,-99.99,,2013-01-02 10:53:00,
2013-01-02 06:02:00,-999.0,-99.9,29.94,NW,326,15.0,19.0,-999,-99.99,,,-99.99,,2013-01-02 11:02:00,
2013-01-02 06:12:00,23.0,-99.9,29.94,NNW,335,14.0,21.0,-999,-99.99,,,-99.99,,2013-01-02 11:12:00,
2013-01-02 06:22:00,-999.0,-99.9,29.94,NNW,337,13.0,21.0,-999,-99.99,,,-99.99,,2013-01-02 11:22:00,
2013-01-02 06:33:00,-999.0,-99.9,29.95,NNW,329,9.0,19.0,-999,-99.99,,,-99.99,,2013-01-02 11:33:00,
2013-01-02 06:43:00,-999.0,-99.9,29.94,NNW,328,10.0,18.0,-999,-99.99,,,-99.99,,2013-01-02 11:43:00,
2013-01-02 06:53:00,-999.0,-99.9,29.95,NNW,328,11.0,15.0,-999,-99.99,,,-99.99,,2013-01-02 11:53:00,
2013-01-02 07:03:00,-999.0,-99.9,29.95,NNW,328,9.0,16.0,-999,-99.99,,,-99.99,,2013-01-02 12:03:00,
2013-01-02 07:12:00,23.0,-99.9,29.95,NW,315,11.0,18.0,-999,-99.99,,,-99.99,,2013-01-02 12:12:00,
2013-01-02 07:22:00,-999.0,-99.9,29.95,NW,308,10.0,15.0,-999,-99.99,,,-99.99,,2013-01-02 12:22:00,
2013-01-02 07:33:00,-999.0,-99.9,29.95,NW,313,10.0,14.0,-999,-99.99,,,-99.99,,2013-01-02 12:33:00,
2013-01-02 07:43:00,23.0,-99.9,29.95,NW,314,8.0,15.0,-999,-99.99,,,-99.99,,2013-01-02 12:43:00,
2013-01-02 07:53:00,-999.0,-99.9,29.95,NW,314,10.0,15.0,-999,-99.99,,,-99.99,,2013-01-02 12:53:00,
2013-01-02 08:03:00,-999.0,-99.9,29.95,NNW,327,10.0,15.0,-999,-99.99,,,-99.99,,2013-01-02 13:03:00,
2013-01-02 08:13:00,24.0,-99.9,29.95,NW,317,9.0,16.0,-999,-99.99,,,-99.99,,2013-01-02 13:13:00,
2013-01-02 08:22:00,-999.0,-99.9,29.95,NW,320,11.0,17.0,-999,-99.99,,,-99.99,,2013-01-02 13:22:00,
2013-01-02 08:33:00,-999.0,-99.9,29.95,NW,324,9.0,17.0,-999,-99.99,,,-99.99,,2013-01-02 13:33:00,
2013-01-02 08:43:00,-999.0,-99.9,29.95,NW,324,9.0,17.0,-999,-99.99,,,-99.99,,2013-01-02 13:43:00,
2013-01-02 08:53:00,-999.0,-99.9,29.94,NNW,329,9.0,14.0,-999,-99.99,,,-99.99,,2013-01-02 13:53:00,
2013-01-02 09:03:00,-999.0,-99.9,29.94,NNW,328,10.0,15.0,-999,-99.99,,,-99.99,,2013-01-02 14:03:00,
2013-01-02 09:13:00,-999.0,-99.9,29.94,NW,309,8.0,14.0,-999,-99.99,,,-99.99,,2013-01-02 14:13:00,
2013-01-02 09:23:00,-999.0,-99.9,29.95,NW,325,11.0,13.0,-999,-99.99,,,-99.99,,2013-01-02 14:23:00,
2013-01-02 09:33:00,-999.0,-99.9,29.95,NW,319,10.0,17.0,-999,-99.99,,,-99.99,,2013-01-02 14:33:00,
2013-01-02 09:43:00,26.0,-99.9,29.95,NW,326,10.0,14.0,-999,-99.99,,,-99.99,,2013-01-02 14:43:00,
2013-01-02 09:53:00,-999.0,-99.9,29.96,NW,307,11.0,17.0,-999,-99.99,,,-99.99,,2013-01-02 14:53:00,
2013-01-02 10:03:00,-999.0,-99.9,29.97,NW,317,10.0,14.0,-999,-99.99,,,-99.99,,2013-01-02 15:03:00,
2013-01-02 10:12:00,27.0,-99.9,29.97,NNW,327,13.0,20.0,-999,-99.99,,,-99.99,,2013-01-02 15:12:00,
2013-01-02 10:23:00,-999.0,-99.9,29.97,NW,306,10.0,16.0,-999,-99.99,,,-99.99,,2013-01-02 15:23:00,
2013-01-02 10:33:00,-999.0,-99.9,29.97,WNW,295,9.0,14.0,-999,-99.99,,,-99.99,,2013-01-02 15:33:00,
2013-01-02 10:43:00,28.0,-99.9,29.98,NW,309,9.0,15.0,-999,-99.99,,,-99.99,,2013-01-02 15:43:00,
2013-01-02 10:53:00,-999.0,-99.9,29.97,NW,319,7.0,15.0,-999,-99.99,,,-99.99,,2013-01-02 15:53:00,
2013-01-02 11:03:00,-999.0,-99.9,29.96,NW,312,10.0,17.0,-999,-99.99,,,-99.99,,2013-01-02 16:03:00,
2013-01-02 11:13:00,29.0,-99.9,29.96,NW,307,12.0,18.0,-999,-99.99,,,-99.99,,2013-01-02 16:13:00,
2013-01-02 11:22:00,-999.0,-99.9,29.96,NW,313,13.0,19.0,-999,-99.99,,,-99.99,,2013-01-02 16:22:00,
2013-01-02 11:33:00,-999.0,-99.9,29.96,WNW,288,12.0,18.0,-999,-99.99,,,-99.99,,2013-01-02 16:33:00,
2013-01-02 11:43:00,30.0,-99.9,29.95,WNW,286,5.0,16.0,-999,-99.99,,,-99.99,,2013-01-02 16:43:00,
2013-01-02 11:54:00,-999.0,-99.9,29.94,WNW,287,12.0,17.0,-999,-99.99,,,-99.99,,2013-01-02 16:54:00,
2013-01-02 12:04:00,-999.0,-99.9,29.93,WNW,296,10.0,16.0,-999,-99.99,,,-99.99,,2013-01-02 17:04:00,
2013-01-02 12:13:00,31.0,-99.9,29.93,West,262,6.0,15.0,-999,-99.99,,,-99.99,,2013-01-02 17:13:00,
2013-01-02 12:23:00,-999.0,-99.9,29.93,West,266,4.0,12.0,-999,-99.99,,,-99.99,,2013-01-02 17:23:00,
2013-01-02 12:33:00,-999.0,-99.9,29.92,West,275,5.0,13.0,-999,-99.99,,,-99.99,,2013-01-02 17:33:00,
2013-01-02 12:43:00,-999.0,-99.9,29.92,West,270,6.0,16.0,-999,-99.99,,,-99.99,,2013-01-02 17:43:00,
2013-01-02 12:54:00,-999.0,-99.9,29.92,West,279,9.0,15.0,-999,-99.99,,,-99.99,,2013-01-02 17:54:00,
2013-01-02 13:03:00,-999.0,-99.9,29.92,WNW,290,10.0,18.0,-999,-99.99,,,-99.99,,2013-01-02 18:03:00,
2013-01-02 13:13:00,32.0,-99.9,29.92,WNW,282,11.0,20.0,-999,-99.99,,,-99.99,,2013-01-02 18:13:00,
2013-01-02 13:23:00,-999.0,-99.9,29.91,NW,305,10.0,20.0,-999,-99.99,,,-99.99,,2013-01-02 18:23:00,
2013-01-02 13:33:00,-999.0,-99.9,29.92,WNW,297,11.0,18.0,-999,-99.99,,,-99.99,,2013-01-02 18:33:00,
2013-01-02 13:43:00,31.0,-99.9,29.92,WNW,295,10.0,18.0,-999,-99.99,,,-99.99,,2013-01-02 18:43:00,
2013-01-02 13:54:00,-999.0,-99.9,29.91,WNW,297,9.0,20.0,-999,-99.99,,,-99.99,,2013-01-02 18:54:00,
2013-01-02 14:03:00,-999.0,-99.9,29.91,West,271,9.0,17.0,-999,-99.99,,,-99.99,,2013-01-02 19:03:00,
2013-01-02 14:13:00,-999.0,-99.9,29.91,WNW,295,8.0,16.0,-999,-99.99,,,-99.99,,2013-01-02 19:13:00,
2013-01-02 14:23:00,-999.0,-99.9,29.91,West,281,9.0,18.0,-999,-99.99,,,-99.99,,2013-01-02 19:23:00,
2013-01-02 14:33:00,-999.0,-99.9,29.91,West,277,6.0,18.0,-999,-99.99,,,-99.99,,2013-01-02 19:33:00,
2013-01-02 14:43:00,30.0,-99.9,29.91,West,276,8.0,15.0,-999,-99.99,,,-99.99,,2013-01-02 19:43:00,
2013-01-02 14:53:00,-999.0,-99.9,29.92,West,275,7.0,13.0,-999,-99.99,,,-99.99,,2013-01-02 19:53:00,
2013-01-02 15:03:00,-999.0,-99.9,29.92,West,269,8.0,15.0,-999,-99.99,,,-99.99,,2013-01-02 20:03:00,
2013-01-02 15:12:00,30.0,-99.9,29.93,West,269,8.0,14.0,-999,-99.99,,,-99.99,,2013-01-02 20:12:00,
2013-01-02 15:23:00,-999.0,-99.9,29.93,WNW,294,10.0,19.0,-999,-99.99,,,-99.99,,2013-01-02 20:23:00,
2013-01-02 15:33:00,-999.0,-99.9,29.93,WNW,294,9.0,21.0,-999,-99.99,,,-99.99,,2013-01-02 20:33:00,
2013-01-02 15:42:00,31.0,-99.9,29.93,WNW,293,14.0,18.0,-999,-99.99,,,-99.99,,2013-01-02 20:42:00,
2013-01-02 15:53:00,-999.0,-99.9,29.95,WNW,297,11.0,17.0,-999,-99.99,,,-99.99,,2013-01-02 20:53:00,
2013-01-02 16:03:00,-999.0,-99.9,29.95,WNW,288,9.0,18.0,-999,-99.99,,,-99.99,,2013-01-02 21:03:00,
2013-01-02 16:13:00,31.0,-99.9,29.95,WNW,295,9.0,18.0,-999,-99.99,,,-99.99,,2013-01-02 21:13:00,
2013-01-02 16:23:00,-999.0,-99.9,29.95,WNW,301,8.0,17.0,-999,-99.99,,,-99.99,,2013-01-02 21:23:00,
2013-01-02 16:33:00,-999.0,-99.9,29.96,NW,307,11.0,16.0,-999,-99.99,,,-99.99,,2013-01-02 21:33:00,
2013-01-02 16:43:00,31.0,-99.9,29.96,WNW,302,11.0,19.0,-999,-99.99,,,-99.99,,2013-01-02 21:43:00,
2013-01-02 16:53:00,-999.0,-99.9,29.96,NW,315,12.0,22.0,-999,-99.99,,,-99.99,,2013-01-02 21:53:00,
2013-01-02 17:03:00,-999.0,-99.9,29.96,WNW,303,8.0,17.0,-999,-99.99,,,-99.99,,2013-01-02 22:03:00,
2013-01-02 17:13:00,31.0,-99.9,29.97,WNW,303,10.0,20.0,-999,-99.99,,,-99.99,,2013-01-02 22:13:00,
2013-01-02 17:22:00,-999.0,-99.9,29.97,WNW,297,16.0,23.0,-999,-99.99,,,-99.99,,2013-01-02 22:22:00,
2013-01-02 17:33:00,-999.0,-99.9,29.98,NNW,328,13.0,19.0,-999,-99.99,,,-99.99,,2013-01-02 22:33:00,
2013-01-02 17:43:00,-999.0,-99.9,29.98,NW,307,12.0,18.0,-999,-99.99,,,-99.99,,2013-01-02 22:43:00,
2013-01-02 17:53:00,-999.0,-99.9,29.98,NW,319,12.0,19.0,-999,-99.99,,,-99.99,,2013-01-02 22:53:00,
2013-01-02 18:03:00,-999.0,-99.9,29.98,NW,323,11.0,19.0,-999,-99.99,,,-99.99,,2013-01-02 23:03:00,
2013-01-02 18:13:00,30.0,-99.9,29.98,NW,306,12.0,18.0,-999,-99.99,,,-99.99,,2013-01-02 23:13:00,
2013-01-02 18:23:00,-999.0,-99.9,29.99,NNW,332,17.0,24.0,-999,-99.99,,,-99.99,,2013-01-02 23:23:00,
2013-01-02 18:33:00,-999.0,-99.9,29.99,NW,309,14.0,21.0,-999,-99.99,,,-99.99,,2013-01-02 23:33:00,
2013-01-02 18:43:00,30.0,-99.9,30.00,NW,324,13.0,24.0,-999,-99.99,,,-99.99,,2013-01-02 23:43:00,
2013-01-02 18:53:00,-999.0,-99.9,30.00,NW,316,9.0,22.0,-999,-99.99,,,-99.99,,2013-01-02 23:53:00,
2013-01-02 19:02:00,-999.0,-99.9,30.01,NW,323,11.0,16.0,-999,-99.99,,,-99.99,,2013-01-03 00:02:00,
2013-01-02 19:12:00,30.0,-99.9,30.01,NW,313,11.0,17.0,-999,-99.99,,,-99.99,,2013-01-03 00:12:00,
2013-01-02 19:22:00,-999.0,-99.9,30.02,NW,318,11.0,23.0,-999,-99.99,,,-99.99,,2013-01-03 00:22:00,
2013-01-02 19:38:00,-999.0,-99.9,30.02,NW,315,13.0,19.0,-999,-99.99,,,-99.99,,2013-01-03 00:38:00,
2013-01-02 19:53:00,-999.0,-99.9,30.02,NNW,327,16.0,23.0,-999,-99.99,,,-99.99,,2013-01-03 00:53:00,
2013-01-02 20:03:00,-999.0,-99.9,30.03,NW,320,15.0,23.0,-999,-99.99,,,-99.99,,2013-01-03 01:03:00,
2013-01-02 20:12:00,29.0,-99.9,30.02,NW,321,12.0,20.0,-999,-99.99,,,-99.99,,2013-01-03 01:12:00,
2013-01-02 20:23:00,-999.0,-99.9,30.02,NW,322,15.0,23.0,-999,-99.99,,,-99.99,,2013-01-03 01:23:00,
2013-01-02 20:33:00,-999.0,-99.9,30.02,NW,311,12.0,23.0,-999,-99.99,,,-99.99,,2013-01-03 01:33:00,
2013-01-02 20:43:00,29.0,-99.9,30.03,NW,313,15.0,22.0,-999,-99.99,,,-99.99,,2013-01-03 01:43:00,
2013-01-02 20:53:00,-999.0,-99.9,30.04,NW,326,12.0,22.0,-999,-99.99,,,-99.99,,2013-01-03 01:53:00,
2013-01-02 21:02:00,-999.0,-99.9,30.03,NW,306,18.0,30.0,-999,-99.99,,,-99.99,,2013-01-03 02:02:00,
2013-01-02 21:12:00,28.0,-99.9,30.03,NW,311,13.0,24.0,-999,-99.99,,,-99.99,,2013-01-03 02:12:00,
2013-01-02 21:23:00,-999.0,-99.9,30.03,NW,317,15.0,26.0,-999,-99.99,,,-99.99,,2013-01-03 02:23:00,
2013-01-02 21:33:00,-999.0,-99.9,30.03,NW,316,10.0,19.0,-999,-99.99,,,-99.99,,2013-01-03 02:33:00,
2013-01-02 21:43:00,-999.0,-99.9,30.03,NW,316,10.0,19.0,-999,-99.99,,,-99.99,,2013-01-03 02:43:00,
2013-01-02 21:53:00,-999.0,-99.9,30.03,NW,316,10.0,19.0,-999,-99.99,,,-99.99,,2013-01-03 02:53:00,
2013-01-02 22:03:00,-999.0,-99.9,30.04,NW,312,13.0,21.0,-999,-99.99,,,-99.99,,2013-01-03 03:03:00,
2013-01-02 22:12:00,-999.0,-99.9,30.04,NW,315,14.0,26.0,-999,-99.99,,,-99.99,,2013-01-03 03:12:00,
2013-01-02 22:22:00,-999.0,-99.9,30.04,NW,313,9.0,23.0,-999,-99.99,,,-99.99,,2013-01-03 03:22:00,
2013-01-02 22:47:00,-999.0,-99.9,30.04,NW,315,14.0,23.0,-999,-99.99,,,-99.99,,2013-01-03 03:47:00,
2013-01-02 22:53:00,-999.0,-99.9,30.05,NW,318,14.0,23.0,-999,-99.99,,,-99.99,,2013-01-03 03:53:00,
2013-01-02 23:03:00,-999.0,-99.9,30.05,NW,315,12.0,20.0,-999,-99.99,,,-99.99,,2013-01-03 04:03:00,
2013-01-02 23:12:00,27.0,-99.9,30.05,NNW,328,15.0,21.0,-999,-99.99,,,-99.99,,2013-01-03 04:12:00,
2013-01-02 23:22:00,-999.0,-99.9,30.06,NNW,336,15.0,23.0,-999,-99.99,,,-99.99,,2013-01-03 04:22:00,
2013-01-02 23:33:00,-999.0,-99.9,30.06,NNW,329,14.0,22.0,-999,-99.99,,,-99.99,,2013-01-03 04:33:00,
2013-01-02 23:43:00,26.0,-99.9,30.06,NNW,332,14.0,21.0,-999,-99.99,,,-99.99,,2013-01-03 04:43:00,
2013-01-02 23:53:00,-999.0,-99.9,30.06,NNW,327,13.0,21.0,-999,-99.99,,,-99.99,,2013-01-03 04:53:00,